Regional Weather Roundup
Issued by NWS Green Bay, WI

Home | Current Version | Previous Version | Graphics & Text | Print | Product List | Glossary Off
Versions: 1 2 3 4 5 6 7 8 9 10 11 12 13 14 15 16 17 18 19 20 21 22 23 24 25 26 27 28 29 30 31 32 33 34 35 36 37 38 39 40 41 42 43 44 45 46 47 48 49 50

565
ASUS43 KGRB 111811
RWRGRB

NORTH-CENTRAL AND NORTHEAST WISCONSIN REGIONAL WEATHER ROUNDUP
NATIONAL WEATHER SERVICE GREEN BAY WI
1200 PM CST THU FEB 11 2016

WIZ005-009-010>012-018-019-111900-
NORTH CENTRAL WISCONSIN

CITY           SKY/WX    TMP DP  RH WIND       PRES   REMARKS
IRONWOOD       MOSUNNY    9   0  66 SW12      30.18F WCI  -6
MANITOWISH WTR MOSUNNY    8  -2  63 W8        30.16F WCI  -5
ARBOR VITAE    MOSUNNY   11  -3  52 NW7       30.16F WCI   1
EAGLE RIVER    SUNNY     11  -3  52 W3        30.14F
LAND O LAKES   MOSUNNY   13   1  57 W7        30.14F WCI   3
RHINELANDER    CLOUDY    12  -3  51 W10       30.16F WCI  -1
PHILLIPS       CLOUDY     7  -3  64 SW6       30.20F WCI  -3
ANTIGO         SUNNY     12  -2  52 NW9       30.17F WCI   0
TOMAHAWK       SUNNY     12  -6  43 W10       30.19F WCI  -1
MERRILL        SUNNY     14  -3  47 W6        30.22S WCI   5
$$

WIZ013-073-111900-
NORTHEAST WISCONSIN

CITY           SKY/WX    TMP DP  RH WIND       PRES   REMARKS
IRON MOUNTAIN  MOSUNNY   14   0  53 NW12      30.16F WCI   0
MARINETTE      SUNNY     14   0  52 W6        30.23F WCI   5
OCONTO         SUNNY     14   0  54 W9        30.26S WCI   2
$$

WIZ017-030-035>037-045-111900-
CENTRAL WISCONSIN

CITY           SKY/WX    TMP DP  RH WIND       PRES   REMARKS
MEDFORD        SUNNY      9  -2  61 W7        30.20F WCI  -2
WAUSAU         SUNNY     12  -2  53 NW9       30.22F WCI   0
MOSINEE        SUNNY     10   0  61 CALM      30.24F
MARSHFIELD     SUNNY      9  -3  58 W9        30.24F WCI  -4
WISC RAPIDS    SUNNY     12  -6  44 W6        30.29F WCI   3
STEVENS POINT  SUNNY     10  -4  53 W8        30.26F WCI  -2
WAUPACA        SUNNY     17   0  46 W10       30.28F WCI   5
SHAWANO        SUNNY     17   2  51 W7        30.26S WCI   7
CLINTONVILLE   SUNNY     16   0  48 W12       30.26F WCI   3
WAUTOMA        SUNNY     14  -3  47 W8        30.30F WCI   3
$$

WIZ038-039-048-051-111900-
FOX VALLEY

CITY           SKY/WX    TMP DP  RH WIND       PRES   REMARKS
NWS GREEN BAY  SUNNY     13   1  59 W10       30.27S WCI   0
APPLETON       SUNNY     12   0  57 W10       30.26S WCI  -1
OSHKOSH        SUNNY     13   1  59 W9        30.28S WCI   1
FOND DU LAC    SUNNY     12   0  58 W9        30.29S WCI   0
$$

WIZ022-050-052-111900-
EAST CENTRAL WISCONSIN

CITY           SKY/WX    TMP DP  RH WIND       PRES   REMARKS
EPHRAIM        FAIR      14   0  53 NW8       30.21S WCI   3
STURGEON BAY   SUNNY     12   0  57 NW9       30.25F WCI   0
MANITOWOC      SUNNY     16   2  54 W9        30.28  WCI   4
SHEBOYGAN      SUNNY     13   0  56 W10       30.28S WCI   0
$$

LMZ563-521-522-541>543-111900-
LAKESHORE

STATION/POSITION TIME  TEMP    WIND        PRES    VSBY  WAVE
                       AIR SEA DIR/SP/G                  HT/PER
                 (UTC) (F)     (DEG/KT/KT) (MB)    (MI)  (FT/S)
SHEBOYGAN LKSHOR 1800   12     270/  3/  6 1027.3F
KEWAUNEE LKSHORE 1700   12     300/ 10/ 14 1023.8F
ALGOMA MARINA    1711          320/  6/ 12   N/A
CHAMBERS ISLAND  1700   15     250/  6/  9 1024.0R
MENOMINEE LKSHOR 1700   13     290/  5     1023.1S
$$




USA.gov is the U.S. government's official web portal to all federal, state and local government web resources and services.